Date,TemperatureHighF,TemperatureAvgF,TemperatureLowF,DewpointHighF,DewpointAvgF,DewpointLowF,HumidityHigh,HumidityAvg,HumidityLow,PressureMaxIn,PressureMinIn,WindSpeedMaxMPH,WindSpeedAvgMPH,GustSpeedMaxMPH,PrecipitationSumIn
2013-1-1,47,43,39,42,39,36,92,88,80,30.21,29.71,17,5,22,0.02
2013-1-2,55,51,45,52,49,42,95,93,90,30.28,30.20,16,5,18,0.00
2013-1-3,54,52,51,51,50,47,93,90,85,30.64,30.53,15,5,17,0.00
2013-1-4,51,51,50,50,49,47,95,93,85,30.64,30.52,11,2,14,0.01
2013-1-5,53,52,50,52,50,48,97,93,90,30.52,30.43,16,3,22,0.02
2013-1-6,52,51,49,50,50,48,97,95,92,30.49,30.25,11,3,14,0.02
2013-1-7,53,52,51,52,51,49,97,96,93,30.26,30.07,15,4,21,0.44
2013-1-8,53,48,38,52,46,36,97,91,76,30.34,30.07,17,4,22,0.06
2013-1-9,45,39,33,44,38,32,98,96,88,30.31,30.05,6,2,7,0.01
2013-1-10,50,46,36,46,42,34,94,86,68,30.13,29.94,23,5,24,0.04
2013-1-11,52,45,34,49,42,32,97,90,81,30.13,29.73,13,2,18,0.24
2013-1-12,47,44,40,44,42,37,96,89,82,30.10,29.70,11,2,12,0.09
2013-1-13,46,40,35,43,38,33,94,91,87,30.27,30.10,20,4,23,0.00
2013-1-14,47,44,40,44,41,36,96,88,81,30.24,30.02,22,8,24,0.03
2013-1-15,45,41,35,42,38,33,94,89,82,30.07,29.70,17,4,18,0.09
2013-1-16,47,44,42,46,43,41,97,95,94,29.93,29.70,14,2,17,0.06
2013-1-17,50,46,42,48,45,41,97,96,94,29.93,29.35,25,4,27,1.23
2013-1-18,50,44,35,49,41,33,97,90,77,29.39,29.29,17,4,22,0.08
2013-1-19,41,39,35,39,37,34,95,92,90,29.61,29.33,10,2,13,0.09
2013-1-20,40,38,35,35,34,32,91,85,79,29.59,29.35,17,5,21,0.02
2013-1-21,41,37,33,38,34,32,96,90,80,29.46,29.38,12,2,13,0.07
2013-1-22,42,36,31,35,32,29,94,86,71,29.80,29.58,12,3,14,0.01
2013-1-23,41,36,30,39,35,28,95,93,88,29.89,29.67,16,2,18,0.31
2013-1-24,46,40,35,43,38,32,94,90,81,30.05,29.89,11,2,16,0.04
2013-1-25,50,47,45,49,44,39,97,91,79,29.92,29.40,27,7,32,0.89
2013-1-26,53,47,40,52,45,36,96,91,79,29.83,29.14,29,6,35,0.38
2013-1-27,50,42,37,48,37,34,93,84,65,29.64,29.16,40,12,57,0.12
2013-1-28,53,47,36,50,42,34,94,82,71,29.69,29.29,41,11,50,0.37
2013-1-29,55,50,45,54,48,42,97,91,78,29.57,29.31,31,7,35,0.22
2013-1-30,51,48,45,47,42,36,93,77,58,29.96,29.48,41,12,46,0.15
2013-1-31,51,47,43,45,41,38,88,80,69,29.93,29.71,41,12,63,0.06